Location: Lugano
(46.0000°N, 8.9670°E)
Time: 16:29:32
(UTC+02:00)

Envisat - Pass Details

Date: 18 March 2026
Orbit: 761 x 762 km, 98.4° (Epoch: 19 April)

Event Time Altitude Azimuth Distance (km) Brightness Sun altitude
Rises 01:50:38 0° 29° (NNE) 3,234 7.1 -41.8°
Reaches altitude 10° 01:53:42 10° 48° (NE) 2,302 6.0 -41.6°
Enters shadow 01:54:33 13° 57° (ENE) 2,106 5.8 -41.5°
